TimeEDT,TemperatureF,Dew PointF,Humidity,Sea Level PressureIn,VisibilityMPH,Wind Direction,Wind SpeedMPH,Gust SpeedMPH,PrecipitationIn,Events,Conditions,WindDirDegrees,DateUTC
12:56 AM,52.0,43.0,71,30.22,10.0,ENE,5.8,-,N/A,,Overcast,60,2012-10-09 04:56:00
1:56 AM,51.1,44.1,77,30.20,10.0,NE,6.9,-,N/A,,Overcast,40,2012-10-09 05:56:00
2:56 AM,53.1,44.1,71,30.19,10.0,ENE,5.8,-,N/A,,Overcast,60,2012-10-09 06:56:00
3:56 AM,54.0,44.1,69,30.19,10.0,ENE,8.1,-,N/A,,Overcast,60,2012-10-09 07:56:00
4:56 AM,55.0,45.0,69,30.17,10.0,ENE,8.1,-,N/A,,Overcast,60,2012-10-09 08:56:00
5:56 AM,55.0,46.9,74,30.17,10.0,ENE,8.1,-,N/A,,Overcast,70,2012-10-09 09:56:00
6:56 AM,55.0,48.0,77,30.17,10.0,NE,10.4,-,N/A,,Overcast,40,2012-10-09 10:56:00
7:56 AM,55.0,50.0,83,30.17,10.0,NE,12.7,-,N/A,,Overcast,40,2012-10-09 11:56:00
8:11 AM,55.4,51.8,88,30.17,5.0,NE,11.5,-,0.00,,Light Drizzle,40,2012-10-09 12:11:00
8:56 AM,55.0,52.0,89,30.18,3.0,NE,11.5,-,0.00,,Light Drizzle,40,2012-10-09 12:56:00
9:05 AM,55.4,51.8,88,30.18,2.5,NE,12.7,-,0.00,,Light Drizzle,40,2012-10-09 13:05:00
9:56 AM,55.0,53.1,93,30.18,5.0,NE,12.7,-,0.00,,Light Drizzle,40,2012-10-09 13:56:00
10:56 AM,55.9,52.0,87,30.17,10.0,NE,13.8,-,0.00,,Overcast,50,2012-10-09 14:56:00
11:33 AM,57.2,53.6,88,30.16,10.0,NE,9.2,18.4,N/A,,Overcast,50,2012-10-09 15:33:00
11:56 AM,57.9,53.1,84,30.15,10.0,ENE,10.4,19.6,N/A,,Overcast,60,2012-10-09 15:56:00
12:56 PM,57.0,53.1,87,30.14,5.0,NE,15.0,20.7,0.00,,Light Drizzle,50,2012-10-09 16:56:00
1:32 PM,57.2,53.6,88,30.12,1.5,ENE,10.4,-,0.00,Rain,Light Rain,60,2012-10-09 17:32:00
1:56 PM,55.9,54.0,93,30.12,1.5,NE,11.5,-,0.00,Rain,Light Rain,50,2012-10-09 17:56:00
2:56 PM,57.0,53.1,87,30.12,6.0,NE,12.7,-,0.00,,Light Drizzle,50,2012-10-09 18:56:00
3:23 PM,57.2,53.6,88,30.11,6.0,ENE,11.5,-,0.00,,Overcast,60,2012-10-09 19:23:00
3:56 PM,57.0,53.1,87,30.11,10.0,NE,12.7,-,0.00,,Overcast,50,2012-10-09 19:56:00
4:56 PM,57.0,53.1,87,30.10,10.0,ENE,11.5,-,N/A,,Overcast,60,2012-10-09 20:56:00
5:56 PM,57.0,52.0,83,30.10,10.0,NE,8.1,-,0.00,,Light Drizzle,50,2012-10-09 21:56:00
6:56 PM,57.0,52.0,83,30.10,10.0,NE,8.1,-,0.00,,Overcast,50,2012-10-09 22:56:00
7:56 PM,57.0,51.1,81,30.09,10.0,NE,11.5,-,N/A,,Overcast,50,2012-10-09 23:56:00
8:56 PM,57.0,51.1,81,30.10,10.0,NE,10.4,-,N/A,,Overcast,50,2012-10-10 00:56:00
9:56 PM,55.9,52.0,87,30.09,10.0,ENE,8.1,-,N/A,,Overcast,70,2012-10-10 01:56:00
10:23 PM,55.4,51.8,88,30.09,10.0,ENE,9.2,-,0.00,Rain,Light Rain,60,2012-10-10 02:23:00
10:56 PM,55.9,52.0,87,30.09,9.0,East,9.2,-,0.01,Rain,Light Rain,80,2012-10-10 02:56:00
11:56 PM,55.0,52.0,89,30.07,10.0,NE,9.2,-,0.00,,Overcast,50,2012-10-10 03:56:00